EN

Hourly Weather Allinges

Today, 21 January, Thursday

Time Temperature Precipitation Wind Pressure Humidity
00:00 +2°C° 0 mm 3 mps 704 mmHg 81%
01:00 +2°C° 0 mm 3 mps 704 mmHg 80%
02:00 +2°C° 0 mm 3 mps 704 mmHg 79%
03:00 +2°C° 0 mm 3 mps 704 mmHg 79%
04:00 +2°C° 0 mm 3 mps 704 mmHg 79%
05:00 +1°C° 0 mm 3 mps 704 mmHg 79%
06:00 +1°C° 0 mm 4 mps 704 mmHg 80%
07:00 +1°C° 0 mm 4 mps 704 mmHg 82%
08:00 +3°C° 0 mm 4 mps 704 mmHg 83%
09:00 +4°C° 0 mm 4 mps 704 mmHg 85%
10:00 +4°C° 0 mm 4 mps 704 mmHg 88%
11:00 +5°C° 0 mm 4 mps 704 mmHg 90%
12:00 +6°C° 0 mm 4 mps 704 mmHg 93%
13:00 +6°C° 0 mm 4 mps 703 mmHg 92%
14:00 +5°C° 0 mm 3 mps 703 mmHg 92%
15:00 +5°C° 0 mm 3 mps 702 mmHg 91%
16:00 +5°C° 0 mm 3 mps 702 mmHg 89%
17:00 +4°C° 0 mm 3 mps 702 mmHg 88%
18:00 +4°C° 0 mm 3 mps 702 mmHg 86%
19:00 +4°C° 0.2 mm 3 mps 701 mmHg 87%
20:00 +4°C° 0.2 mm 4 mps 701 mmHg 88%
21:00 +4°C° 0.2 mm 4 mps 701 mmHg 89%
22:00 +4°C° 1.3 mm 4 mps 701 mmHg 91%
23:00 +3°C° 1.3 mm 5 mps 701 mmHg 93%

Tomorrow, 22 January, Friday

Time Temperature Precipitation Wind Pressure Humidity
00:00 +2°C° 1.3 mm 5 mps 701 mmHg 96%
01:00 +3°C° 0.7 mm 5 mps 700 mmHg 95%
02:00 +3°C° 0.7 mm 5 mps 700 mmHg 95%
03:00 +4°C° 0.7 mm 4 mps 699 mmHg 95%
04:00 +4°C° 0.8 mm 4 mps 699 mmHg 95%
05:00 +4°C° 0.8 mm 4 mps 699 mmHg 96%
06:00 +4°C° 0.8 mm 4 mps 699 mmHg 96%
07:00 +4°C° 0 mm 3 mps 698 mmHg 94%
08:00 +5°C° 0 mm 2 mps 697 mmHg 92%
09:00 +5°C° 0 mm 2 mps 697 mmHg 90%
10:00 +7°C° 0 mm 1 mps 696 mmHg 91%
11:00 +7°C° 0 mm 1 mps 695 mmHg 92%
12:00 +8°C° 0 mm 1 mps 695 mmHg 93%
13:00 +7°C° 0.5 mm 1 mps 694 mmHg 95%
14:00 +7°C° 0.5 mm 1 mps 693 mmHg 96%
15:00 +6°C° 0.5 mm 1 mps 693 mmHg 97%
16:00 +5°C° 2.1 mm 1 mps 693 mmHg 98%
17:00 +4°C° 2.1 mm 2 mps 693 mmHg 98%
18:00 +3°C° 2.1 mm 2 mps 694 mmHg 99%
19:00 +3°C° 2 mm 2 mps 694 mmHg 98%
20:00 +2°C° 2 mm 3 mps 695 mmHg 98%
21:00 +2°C° 2 mm 3 mps 695 mmHg 98%
22:00 +1°C° 1.8 mm 3 mps 696 mmHg 98%
23:00 +1°C° 1.8 mm 3 mps 697 mmHg 98%

Day after tomorrow, 23 January, Saturday

Time Temperature Precipitation Wind Pressure Humidity
00:00 0°C° 1.8 mm 3 mps 697 mmHg 98%
01:00 0°C° 0.6 mm 3 mps 698 mmHg 97%
02:00 +1°C° 0.6 mm 2 mps 698 mmHg 97%
03:00 -1°C° 0.6 mm 2 mps 699 mmHg 96%
04:00 -1°C° 0 mm 2 mps 699 mmHg 95%
05:00 -2°C° 0 mm 2 mps 698 mmHg 94%
06:00 -2°C° 0 mm 2 mps 698 mmHg 92%
07:00 -2°C° 0 mm 2 mps 698 mmHg 92%
08:00 -1°C° 0 mm 2 mps 698 mmHg 91%
09:00 -1°C° 0 mm 2 mps 698 mmHg 90%
10:00 +1°C° 0 mm 2 mps 697 mmHg 89%
11:00 +2°C° 0 mm 2 mps 697 mmHg 89%
12:00 +3°C° 0 mm 2 mps 696 mmHg 88%
13:00 +3°C° 0 mm 2 mps 696 mmHg 88%
14:00 +3°C° 0 mm 2 mps 695 mmHg 89%
15:00 +3°C° 0 mm 2 mps 695 mmHg 90%
16:00 +2°C° 0.1 mm 2 mps 695 mmHg 90%
17:00 +1°C° 0.1 mm 2 mps 696 mmHg 91%
18:00 -2°C° 0.1 mm 2 mps 696 mmHg 91%
19:00 -1°C° 1.1 mm 3 mps 697 mmHg 93%
20:00 -1°C° 1.1 mm 3 mps 697 mmHg 95%
21:00 -2°C° 1.1 mm 4 mps 698 mmHg 97%
22:00 -2°C° 0.8 mm 4 mps 698 mmHg 97%
23:00 -1°C° 0.8 mm 3 mps 698 mmHg 97%

24 January, Sunday

Time Temperature Precipitation Wind Pressure Humidity
00:00 -1°C° 0.8 mm 3 mps 699 mmHg 96%
01:00 -2°C° 0.3 mm 3 mps 699 mmHg 96%
02:00 -2°C° 0.3 mm 3 mps 699 mmHg 96%
03:00 -2°C° 0.3 mm 3 mps 699 mmHg 96%
04:00 -3°C° 0.1 mm 2 mps 699 mmHg 95%
05:00 -4°C° 0.1 mm 2 mps 700 mmHg 93%
06:00 -3°C° 0.1 mm 1 mps 700 mmHg 92%
07:00 -2°C° 0 mm 1 mps 700 mmHg 91%
08:00 -1°C° 0 mm 1 mps 701 mmHg 90%
09:00 -1°C° 0 mm 1 mps 701 mmHg 88%
10:00 0°C° 0 mm 1 mps 700 mmHg 87%
11:00 -1°C° 0 mm 2 mps 700 mmHg 87%
12:00 +1°C° 0 mm 2 mps 700 mmHg 86%
13:00 0°C° 0 mm 3 mps 700 mmHg 87%
14:00 0°C° 0 mm 3 mps 699 mmHg 87%
15:00 0°C° 0 mm 3 mps 699 mmHg 88%
16:00 -1°C° 0.4 mm 3 mps 699 mmHg 90%
17:00 -1°C° 0.4 mm 3 mps 700 mmHg 92%
18:00 -2°C° 0.4 mm 3 mps 700 mmHg 94%
19:00 -2°C° 0.7 mm 3 mps 700 mmHg 95%
20:00 -2°C° 0.7 mm 3 mps 700 mmHg 95%
21:00 -2°C° 0.7 mm 3 mps 700 mmHg 96%
22:00 -2°C° 1.2 mm 3 mps 701 mmHg 96%
23:00 -3°C° 1.2 mm 4 mps 701 mmHg 95%

25 January, Monday

Time Temperature Precipitation Wind Pressure Humidity
00:00 -3°C° 1.2 mm 4 mps 702 mmHg 95%
01:00 -3°C° 0.8 mm 4 mps 702 mmHg 95%
02:00 -4°C° 0.8 mm 4 mps 703 mmHg 95%
03:00 -4°C° 0.8 mm 4 mps 704 mmHg 95%
04:00 -4°C° 0.4 mm 4 mps 704 mmHg 95%
05:00 -5°C° 0.4 mm 3 mps 705 mmHg 95%
06:00 -6°C° 0.4 mm 3 mps 706 mmHg 95%
07:00 -5°C° 0.2 mm 3 mps 706 mmHg 95%
08:00 -5°C° 0.2 mm 3 mps 707 mmHg 94%
09:00 -4°C° 0.2 mm 3 mps 708 mmHg 94%
10:00 -2°C° 0.1 mm 3 mps 708 mmHg 92%
11:00 -2°C° 0.1 mm 3 mps 709 mmHg 89%
12:00 -2°C° 0.1 mm 4 mps 709 mmHg 87%
13:00 -2°C° 0.2 mm 4 mps 709 mmHg 88%
14:00 -1°C° 0.2 mm 3 mps 709 mmHg 90%
15:00 -1°C° 0.2 mm 3 mps 709 mmHg 91%
16:00 -2°C° 0.1 mm 3 mps 710 mmHg 92%
17:00 -4°C° 0.1 mm 3 mps 710 mmHg 92%
18:00 -4°C° 0.1 mm 3 mps 711 mmHg 93%
19:00 -4°C° 0.2 mm 3 mps 711 mmHg 93%
20:00 -5°C° 0.2 mm 3 mps 711 mmHg 93%
21:00 -5°C° 0.2 mm 3 mps 712 mmHg 93%
22:00 -5°C° 0.2 mm 3 mps 712 mmHg 92%
23:00 -5°C° 0.2 mm 3 mps 712 mmHg 91%

26 January, Tuesday

Time Temperature Precipitation Wind Pressure Humidity
00:00 -5°C° 0.2 mm 3 mps 712 mmHg 90%
01:00 -4°C° 0.2 mm 2 mps 712 mmHg 91%
02:00 -4°C° 0.2 mm 2 mps 712 mmHg 92%
03:00 -4°C° 0.2 mm 2 mps 712 mmHg 93%
04:00 -4°C° 0.3 mm 2 mps 712 mmHg 94%
05:00 -4°C° 0.3 mm 2 mps 712 mmHg 94%
06:00 -4°C° 0.3 mm 2 mps 713 mmHg 95%
07:00 -3°C° 0.1 mm 2 mps 713 mmHg 94%
08:00 -3°C° 0.1 mm 2 mps 713 mmHg 94%
09:00 -2°C° 0.1 mm 2 mps 714 mmHg 93%
10:00 -1°C° 0 mm 2 mps 713 mmHg 93%
11:00 +1°C° 0 mm 2 mps 713 mmHg 92%
12:00 +2°C° 0 mm 2 mps 713 mmHg 92%
13:00 +2°C° 0 mm 2 mps 713 mmHg 92%
14:00 +2°C° 0 mm 2 mps 712 mmHg 92%
15:00 +2°C° 0 mm 2 mps 712 mmHg 93%
16:00 +1°C° 0 mm 2 mps 712 mmHg 91%
17:00 +1°C° 0 mm 2 mps 712 mmHg 90%
18:00 +1°C° 0 mm 1 mps 712 mmHg 88%
19:00 -1°C° 0.2 mm 2 mps 712 mmHg 90%
20:00 -1°C° 0.2 mm 2 mps 712 mmHg 91%
21:00 -1°C° 0.2 mm 2 mps 712 mmHg 93%
22:00 0°C° 0.2 mm 3 mps 712 mmHg 93%
23:00 0°C° 0.2 mm 3 mps 712 mmHg 94%
Show more